TA2NC-13 Weather Reports


Display with metric or nautical units.
time (UTC)temp
F
wind
direction
speed
MPH
gust
MPH
rain 1hr
in
rain 24hr
in
rain mn
in
humidity
%
barometer
mb
20260504082000 39 203 2.0 7.0 0.00 0.00 0.09 91 1003.0
20260504081000 39 240 3.0 5.0 0.00 0.00 0.09 92 1003.0
20260504050000 38 239 3.0 7.0 0.00 0.00 0.05 92 1003.0
20260504045000 38 241 3.0 7.0 0.01 0.00 0.05 92 1003.0
20260504044000 38 168 4.0 7.0 0.01 0.00 0.05 92 1003.0
20260504043000 38 267 4.0 8.0 0.00 0.00 0.03 91 1003.0
20260504042000 38 246 6.0 8.0 0.00 0.00 0.03 91 1003.0
20260504041000 38 236 4.0 9.0 0.00 0.00 0.03 92 1003.0
20260504040000 38 244 2.0 6.0 0.00 0.00 0.03 91 1003.0
20260504035000 38 223 1.0 6.0 0.00 0.00 0.03 91 1003.0
20260504034000 38 247 3.0 6.0 0.00 0.00 0.03 92 1003.0
20260504033000 39 240 4.0 9.0 0.00 0.00 0.03 93 1003.0
20260504032000 39 240 4.0 7.0 0.00 0.00 0.03 92 1003.0
20260504031000 39 260 4.0 5.0 0.00 0.00 0.03 92 1003.0
20260504030000 39 247 4.0 5.0 0.00 0.00 0.03 92 1003.0
20260504025000 39 239 3.0 7.0 0.00 0.00 0.03 93 1003.0
20260504024000 39 259 3.0 5.0 0.00 0.00 0.03 93 1003.0
20260504023000 39 236 2.0 5.0 0.00 0.00 0.03 92 1003.0
20260504022000 39 259 2.0 4.0 0.00 0.00 0.03 93 1003.0
20260504021000 40 247 1.0 3.0 0.00 0.00 0.03 93 1003.0
20260504020000 40 250 3.0 3.0 0.00 0.00 0.03 92 1003.0
20260504015000 39 252 0.0 1.0 0.01 0.00 0.03 92 1003.0
20260504014000 39 176 1.0 2.0 0.00 0.00 0.01 92 1003.0
20260504013000 39 235 1.0 2.0 0.00 0.00 0.01 92 1003.0
20260504012000 39 235 0.0 3.0 0.00 0.00 0.01 92 1003.0
20260504011000 39 247 1.0 4.0 0.00 0.00 0.01 92 1003.0
20260504010000 39 235 1.0 3.0 0.00 0.00 0.01 92 1003.0
20260504005000 39 265 3.0 5.0 0.00 0.00 0.01 91 1003.0
20260504004000 39 275 3.0 6.0 0.00 0.00 0.01 91 1003.0
20260504003000 40 275 2.0 4.0 0.00 0.00 0.01 91 1003.0
20260504002000 40 332 2.0 5.0 0.00 0.00 0.01 91 1003.0
20260504001000 40 309 3.0 7.0 0.00 0.00 0.01 92 1003.0
20260504000000 40 269 3.0 6.0 0.00 0.00 0.01 91 1003.0
20260503235000 40 321 2.0 5.0 0.00 0.00 0.01 91 1003.0
20260503234000 40 271 5.0 6.0 0.00 0.00 0.01 91 1003.0
20260503233000 40 345 0.0 2.0 0.00 0.00 0.01 91 1003.0
20260503232000 40 305 3.0 5.0 0.00 0.00 0.01 91 1003.0
20260503231000 40 242 1.0 4.0 0.00 0.00 0.01 91 1003.0
20260503230000 40 349 2.0 4.0 0.00 0.00 0.01 91 1003.0
20260503225000 40 235 3.0 5.0 0.01 0.00 0.01 91 1003.0
20260503224000 40 297 5.0 7.0 0.01 0.00 0.01 91 1003.0
20260503223000 40 257 5.0 6.0 0.01 0.00 0.01 91 1003.0
20260503222000 40 243 4.0 6.0 0.01 0.00 0.01 91 1003.0
20260503221000 40 300 3.0 8.0 0.00 0.00 0.00 91 1003.0
20260503220000 40 311 4.0 5.0 0.00 0.00 0.00 90 1003.0
20260503215000 40 283 2.0 6.0 0.00 0.00 0.00 90 1003.0
20260503214000 40 282 5.0 6.0 0.00 0.00 0.00 90 1003.0
20260503213000 40 284 4.0 8.0 0.00 0.00 0.00 90 1003.0
20260503212000 40 272 7.0 10.0 0.00 0.00 0.00 91 1003.0
20260503211000 40 286 4.0 9.0 0.00 0.00 0.00 89 1003.0
20260503210000 40 260 6.0 11.0 0.00 0.00 0.00 90 1003.0
20260503205000 41 278 5.0 10.0 0.01 0.00 0.62 90 1003.0
20260503204000 41 296 3.0 10.0 0.01 0.00 0.62 90 1003.0
20260503203000 41 359 3.0 8.0 0.00 0.00 0.61 90 1004.0
20260503202000 41 337 4.0 9.0 0.00 0.00 0.61 90 1004.0
20260503201000 41 268 4.0 10.0 0.00 0.00 0.61 89 1004.0
20260503200000 41 280 5.0 8.0 0.00 0.00 0.61 88 1004.0
20260503195000 41 281 8.0 14.0 0.61 0.00 0.61 90 1004.0
20260503194000 41 308 5.0 9.0 0.61 0.00 0.61 89 1003.0
20260503193002 41 285 5.0 9.0 0.57 0.00 0.57 89 1003.0
20260503192000 42 295 8.0 12.0 0.57 0.00 0.57 89 1003.0
20260503191000 42 310 6.0 10.0 0.55 0.00 0.55 88 1003.0
20260503190000 42 318 6.0 9.0 0.00 0.00 0.00 88 1003.0
20260503185000 42 348 5.0 10.0 0.00 0.00 0.00 88 1003.0
20260503184000 42 281 6.0 10.0 0.00 0.00 0.00 88 1003.0
20260503183000 42 321 5.0 9.0 0.00 0.00 0.00 87 1003.0
20260503182000 42 335 5.0 10.0 0.00 0.00 0.00 87 1003.0
20260503181000 42 344 5.0 12.0 0.00 0.00 0.00 86 1003.0
20260503180000 42 326 6.0 12.0 0.00 0.00 0.00 85 1003.0
20260503175000 42 309 8.0 15.0 0.00 0.00 0.00 85 1003.0
20260503174000 43 343 8.0 13.0 0.00 0.00 0.00 82 1003.0
20260503173000 43 309 10.0 15.0 0.00 0.00 0.00 80 1003.0
20260503172001 44 302 11.0 16.0 0.00 0.00 0.00 79 1003.0
20260503171000 44 336 10.0 14.0 0.00 0.00 0.00 81 1003.0
20260503151000 46 307 10.0 15.0 0.00 0.00 0.00 71 1006.0
20260503131000 49 308 9.0 17.0 0.00 0.00 0.00 65 1006.0